START_TIME,STEP,MOV.,E45,t_acc.,ALAR?,t_acc.,A12,t_acc.,A24,t_acc.
1979-07-28 21:00:25.460 ,0,0,11.,4.8,576.,4.8,0.,4.8,0.,4.8
1979-07-28 21:00:30.260 ,0,0,12.,4.8,576.,4.8,0.,4.8,0.,4.8
1979-07-28 21:00:35.060 ,0,0,11.,4.8,544.,4.8,0.,4.8,0.,4.8
1979-07-28 21:00:39.860 ,0,0,9.,4.8,592.,4.8,0.,4.8,0.,4.8
1979-07-28 21:00:44.660 ,0,0,21.,4.8,592.,4.8,0.,4.8,0.,4.8
1979-07-28 21:00:49.460 ,0,0,14.,4.8,560.,4.8,0.,4.8,0.,4.8
1979-07-28 21:00:54.260 ,0,0,13.,4.8,560.,4.8,0.,4.8,0.,4.8
1979-07-28 21:00:59.060 ,0,0,16.,4.8,528.,4.8,0.,4.8,0.,4.8
1979-07-28 21:01:03.860 ,0,0,12.,4.8,512.,4.8,0.,4.8,0.,4.8
1979-07-28 21:01:08.660 ,0,0,14.,4.8,560.,4.8,0.,4.8,0.,4.8
1979-07-28 21:01:13.460 ,0,0,12.,4.8,560.,4.8,0.,4.8,0.,4.8
1979-07-28 21:01:18.260 ,0,0,13.,4.8,560.,4.8,0.,4.8,0.,4.8
1979-07-28 21:01:23.060 ,0,0,11.,4.8,592.,4.8,0.,4.8,0.,4.8
1979-07-28 21:01:27.860 ,0,0,12.,4.8,560.,4.8,0.,4.8,0.,4.8
1979-07-28 21:01:32.660 ,0,0,13.,4.8,608.,4.8,0.,4.8,0.,4.8
1979-07-28 21:01:37.460 ,1,0,12.,4.8,592.,4.8,0.,4.8,0.,4.8
1979-07-28 21:01:42.260 ,1,0,10.,4.8,592.,4.8,0.,4.8,0.,4.8
1979-07-28 21:01:47.060 ,1,0,15.,4.8,576.,4.8,0.,4.8,0.,4.8
1979-07-28 21:01:51.860 ,1,0,21.,4.8,608.,4.8,0.,4.8,0.,4.8
1979-07-28 21:01:56.660 ,1,0,18.,4.8,592.,4.8,0.,4.8,0.,4.8
1979-07-28 21:02:01.460 ,1,0,12.,4.8,592.,4.8,0.,4.8,0.,4.8
1979-07-28 21:02:06.260 ,1,0,16.,4.8,576.,4.8,0.,4.8,0.,4.8
1979-07-28 21:02:11.060 ,1,0,16.,4.8,608.,4.8,0.,4.8,0.,4.8
1979-07-28 21:02:15.860 ,1,0,17.,4.8,592.,4.8,0.,4.8,0.,4.8
1979-07-28 21:02:20.660 ,1,0,5.,4.8,640.,4.8,0.,4.8,0.,4.8
1979-07-28 21:02:25.460 ,2,0,20.,4.8,608.,4.8,0.,4.8,0.,4.8
1979-07-28 21:02:30.260 ,2,0,14.,4.8,624.,4.8,0.,4.8,0.,4.8
1979-07-28 21:02:35.060 ,2,0,16.,4.8,624.,4.8,0.,4.8,0.,4.8
1979-07-28 21:02:39.860 ,2,0,10.,4.8,656.,4.8,0.,4.8,0.,4.8
1979-07-28 21:02:44.660 ,2,0,16.,4.8,656.,4.8,0.,4.8,0.,4.8
1979-07-28 21:02:49.460 ,2,0,14.,4.8,656.,4.8,0.,4.8,0.,4.8
1979-07-28 21:02:54.260 ,2,0,14.,4.8,608.,4.8,0.,4.8,0.,4.8
1979-07-28 21:02:59.060 ,2,0,15.,4.8,560.,4.8,0.,4.8,0.,4.8
1979-07-28 21:03:03.860 ,2,0,19.,4.8,672.,4.8,0.,4.8,1.,4.8
1979-07-28 21:03:08.660 ,2,0,22.,4.8,640.,4.8,0.,4.8,0.,4.8
1979-07-28 21:03:13.460 ,3,0,16.,4.8,688.,4.8,0.,4.8,0.,4.8
1979-07-28 21:03:18.260 ,3,0,8.,4.8,656.,4.8,0.,4.8,0.,4.8
1979-07-28 21:03:23.060 ,3,0,13.,4.8,672.,4.8,0.,4.8,0.,4.8
1979-07-28 21:03:27.860 ,3,0,18.,4.8,672.,4.8,0.,4.8,0.,4.8
1979-07-28 21:03:32.660 ,3,0,13.,4.8,656.,4.8,0.,4.8,0.,4.8
1979-07-28 21:03:37.460 ,3,0,7.,4.8,656.,4.8,0.,4.8,0.,4.8
1979-07-28 21:03:42.260 ,3,0,10.,4.8,608.,4.8,0.,4.8,0.,4.8
1979-07-28 21:03:47.060 ,3,0,9.,4.8,656.,4.8,0.,4.8,0.,4.8
1979-07-28 21:03:51.860 ,3,0,14.,4.8,656.,4.8,0.,4.8,0.,4.8
1979-07-28 21:03:56.660 ,3,0,14.,4.8,704.,4.8,0.,4.8,0.,4.8
1979-07-28 21:04:01.460 ,4,0,8.,4.8,688.,4.8,0.,4.8,0.,4.8
1979-07-28 21:04:06.260 ,4,0,12.,4.8,720.,4.8,0.,4.8,0.,4.8
1979-07-28 21:04:11.060 ,4,0,18.,4.8,720.,4.8,0.,4.8,0.,4.8
1979-07-28 21:04:15.860 ,4,0,14.,4.8,784.,4.8,0.,4.8,0.,4.8
1979-07-28 21:04:20.660 ,4,0,13.,4.8,736.,4.8,0.,4.8,0.,4.8
1979-07-28 21:04:25.460 ,4,0,16.,4.8,736.,4.8,0.,4.8,0.,4.8
1979-07-28 21:04:30.260 ,4,0,11.,4.8,736.,4.8,0.,4.8,0.,4.8
1979-07-28 21:04:35.060 ,4,0,15.,4.8,704.,4.8,0.,4.8,0.,4.8
1979-07-28 21:04:39.860 ,4,0,22.,4.8,768.,4.8,0.,4.8,0.,4.8
1979-07-28 21:04:44.660 ,4,0,16.,4.8,688.,4.8,0.,4.8,0.,4.8
1979-07-28 21:04:49.460 ,5,0,27.,4.8,704.,4.8,0.,4.8,0.,4.8
1979-07-28 21:04:54.260 ,5,0,18.,4.8,720.,4.8,0.,4.8,0.,4.8
1979-07-28 21:04:59.060 ,5,0,19.,4.8,720.,4.8,0.,4.8,0.,4.8
1979-07-28 21:05:03.860 ,5,0,21.,4.8,736.,4.8,0.,4.8,0.,4.8
1979-07-28 21:05:08.660 ,5,0,17.,4.8,736.,4.8,0.,4.8,0.,4.8
1979-07-28 21:05:13.460 ,5,0,16.,4.8,752.,4.8,0.,4.8,0.,4.8
1979-07-28 21:05:18.260 ,5,0,15.,4.8,768.,4.8,0.,4.8,0.,4.8
1979-07-28 21:05:23.060 ,5,0,16.,4.8,704.,4.8,0.,4.8,0.,4.8
1979-07-28 21:05:27.860 ,5,0,15.,4.8,720.,4.8,0.,4.8,0.,4.8
1979-07-28 21:05:32.660 ,5,0,16.,4.8,768.,4.8,0.,4.8,0.,4.8
1979-07-28 21:05:37.460 ,6,0,17.,4.8,736.,4.8,0.,4.8,0.,4.8
1979-07-28 21:05:42.260 ,6,0,13.,4.8,688.,4.8,0.,4.8,0.,4.8
1979-07-28 21:05:47.060 ,6,0,11.,4.8,720.,4.8,0.,4.8,0.,4.8
1979-07-28 21:05:51.860 ,6,0,15.,4.8,704.,4.8,0.,4.8,0.,4.8
1979-07-28 21:05:56.660 ,6,0,11.,4.8,704.,4.8,0.,4.8,0.,4.8
1979-07-28 21:06:01.460 ,6,0,15.,4.8,720.,4.8,0.,4.8,0.,4.8
1979-07-28 21:06:06.260 ,6,0,16.,4.8,656.,4.8,0.,4.8,0.,4.8
1979-07-28 21:06:11.060 ,6,0,16.,4.8,704.,4.8,0.,4.8,0.,4.8
1979-07-28 21:06:15.860 ,6,0,18.,4.8,704.,4.8,0.,4.8,0.,4.8
1979-07-28 21:06:20.660 ,6,0,21.,4.8,768.,4.8,0.,4.8,0.,4.8
1979-07-28 21:06:25.460 ,7,0,17.,4.8,720.,4.8,0.,4.8,0.,4.8
1979-07-28 21:06:30.260 ,7,0,18.,4.8,720.,4.8,0.,4.8,0.,4.8
1979-07-28 21:06:35.060 ,7,0,13.,4.8,624.,4.8,0.,4.8,0.,4.8
1979-07-28 21:06:39.860 ,7,0,22.,4.8,720.,4.8,0.,4.8,0.,4.8
1979-07-28 21:06:44.660 ,7,0,10.,4.8,688.,4.8,0.,4.8,0.,4.8
1979-07-28 21:06:49.460 ,7,0,23.,4.8,720.,4.8,0.,4.8,0.,4.8
1979-07-28 21:06:54.260 ,7,0,19.,4.8,720.,4.8,0.,4.8,0.,4.8
1979-07-28 21:06:59.060 ,7,0,13.,4.8,688.,4.8,0.,4.8,0.,4.8
1979-07-28 21:07:03.860 ,7,0,10.,4.8,720.,4.8,0.,4.8,0.,4.8
1979-07-28 21:07:08.660 ,7,0,26.,4.8,672.,4.8,0.,4.8,0.,4.8
1979-07-28 21:07:13.460 ,3,1,26.,4.8,768.,4.8,0.,4.8,0.,4.8
1979-07-28 21:07:18.260 ,3,1,8.,4.8,720.,4.8,0.,4.8,0.,4.8
1979-07-28 21:07:23.060 ,3,1,12.,4.8,736.,4.8,0.,4.8,0.,4.8
1979-07-28 21:07:27.860 ,3,1,17.,4.8,752.,4.8,0.,4.8,0.,4.8
1979-07-28 21:07:32.660 ,3,1,13.,4.8,736.,4.8,0.,4.8,0.,4.8
1979-07-28 21:07:37.460 ,0,1,20.,4.8,752.,4.8,0.,4.8,0.,4.8
1979-07-28 21:07:42.260 ,0,1,21.,4.8,624.,4.8,0.,4.8,0.,4.8
1979-07-28 21:07:47.060 ,0,1,19.,4.8,640.,4.8,0.,4.8,0.,4.8
1979-07-28 21:07:51.860 ,0,1,16.,4.8,720.,4.8,0.,4.8,0.,4.8
1979-07-28 21:07:56.660 ,0,1,19.,4.8,704.,4.8,0.,4.8,0.,4.8
1979-07-28 21:08:01.460 ,4,1,9.,4.8,672.,4.8,0.,4.8,0.,4.8
1979-07-28 21:08:06.260 ,4,1,16.,4.8,624.,4.8,0.,4.8,0.,4.8
1979-07-28 21:08:11.060 ,4,1,7.,4.8,672.,4.8,0.,4.8,0.,4.8
1979-07-28 21:08:15.860 ,4,1,6.,4.8,672.,4.8,0.,4.8,0.,4.8
1979-07-28 21:08:20.660 ,4,1,14.,4.8,752.,4.8,0.,4.8,0.,4.8
1979-07-28 21:08:25.460 ,7,1,19.,4.8,736.,4.8,0.,4.8,0.,4.8
1979-07-28 21:08:30.260 ,7,1,17.,4.8,768.,4.8,0.,4.8,0.,4.8
1979-07-28 21:08:35.060 ,7,1,19.,4.8,752.,4.8,0.,4.8,0.,4.8
1979-07-28 21:08:39.860 ,7,1,14.,4.8,656.,4.8,0.,4.8,0.,4.8
1979-07-28 21:08:44.660 ,7,1,11.,4.8,672.,4.8,0.,4.8,0.,4.8
1979-07-28 21:08:49.460 ,3,1,20.,4.8,688.,4.8,0.,4.8,0.,4.8
1979-07-28 21:08:54.260 ,3,1,21.,4.8,768.,4.8,0.,4.8,0.,4.8
1979-07-28 21:08:59.060 ,3,1,19.,4.8,720.,4.8,0.,4.8,0.,4.8
1979-07-28 21:09:03.860 ,3,1,14.,4.8,768.,4.8,0.,4.8,0.,4.8
1979-07-28 21:09:08.660 ,3,1,14.,4.8,704.,4.8,0.,4.8,0.,4.8
1979-07-28 21:09:13.460 ,0,1,15.,4.8,704.,4.8,0.,4.8,0.,4.8
1979-07-28 21:09:18.260 ,0,1,20.,4.8,688.,4.8,0.,4.8,0.,4.8
1979-07-28 21:09:23.060 ,0,1,16.,4.8,736.,4.8,0.,4.8,0.,4.8
1979-07-28 21:09:27.860 ,0,1,15.,4.8,752.,4.8,0.,4.8,0.,4.8
1979-07-28 21:09:32.660 ,0,1,10.,4.8,720.,4.8,0.,4.8,0.,4.8
1979-07-28 21:09:37.460 ,4,1,29.,4.8,736.,4.8,0.,4.8,0.,4.8
1979-07-28 21:09:42.260 ,4,1,17.,4.8,656.,4.8,0.,4.8,0.,4.8
1979-07-28 21:09:47.060 ,4,1,19.,4.8,768.,4.8,0.,4.8,0.,4.8
1979-07-28 21:09:51.860 ,4,1,11.,4.8,752.,4.8,0.,4.8,0.,4.8
1979-07-28 21:09:56.660 ,4,1,17.,4.8,736.,4.8,0.,4.8,0.,4.8
1979-07-28 21:10:01.460 ,7,1,23.,4.8,800.,4.8,0.,4.8,0.,4.8
1979-07-28 21:10:06.260 ,7,1,19.,4.8,800.,4.8,0.,4.8,0.,4.8
1979-07-28 21:10:11.060 ,7,1,28.,4.8,784.,4.8,0.,4.8,0.,4.8
1979-07-28 21:10:15.860 ,7,1,19.,4.8,800.,4.8,0.,4.8,0.,4.8
1979-07-28 21:10:20.660 ,7,1,16.,4.8,768.,4.8,0.,4.8,0.,4.8
1979-07-28 21:10:25.460 ,3,1,15.,4.8,800.,4.8,0.,4.8,0.,4.8
1979-07-28 21:10:30.260 ,3,1,16.,4.8,784.,4.8,0.,4.8,0.,4.8
1979-07-28 21:10:35.060 ,3,1,19.,4.8,768.,4.8,0.,4.8,0.,4.8
1979-07-28 21:10:39.860 ,3,1,14.,4.8,800.,4.8,0.,4.8,0.,4.8
1979-07-28 21:10:44.660 ,3,1,12.,4.8,768.,4.8,0.,4.8,0.,4.8
1979-07-28 21:10:49.460 ,0,1,14.,4.8,720.,4.8,0.,4.8,0.,4.8
1979-07-28 21:10:54.260 ,0,1,18.,4.8,768.,4.8,0.,4.8,0.,4.8
1979-07-28 21:10:59.060 ,0,1,18.,4.8,816.,4.8,0.,4.8,0.,4.8
1979-07-28 21:11:03.860 ,0,1,23.,4.8,768.,4.8,0.,4.8,0.,4.8
1979-07-28 21:11:08.660 ,0,1,23.,4.8,816.,4.8,0.,4.8,0.,4.8
1979-07-28 21:11:13.460 ,4,1,14.,4.8,768.,4.8,0.,4.8,0.,4.8
1979-07-28 21:11:18.260 ,4,1,20.,4.8,688.,4.8,0.,4.8,0.,4.8
1979-07-28 21:11:23.060 ,4,1,16.,4.8,720.,4.8,0.,4.8,0.,4.8
1979-07-28 21:11:27.860 ,4,1,8.,4.8,800.,4.8,0.,4.8,0.,4.8
1979-07-28 21:11:32.660 ,4,1,20.,4.8,784.,4.8,0.,4.8,0.,4.8
1979-07-28 21:11:37.460 ,7,1,19.,4.8,768.,4.8,0.,4.8,0.,4.8
1979-07-28 21:11:42.260 ,7,1,14.,4.8,816.,4.8,0.,4.8,0.,4.8
1979-07-28 21:11:47.060 ,7,1,17.,4.8,800.,4.8,0.,4.8,0.,4.8
1979-07-28 21:11:51.860 ,7,1,10.,4.8,752.,4.8,0.,4.8,0.,4.8
1979-07-28 21:11:56.660 ,7,1,10.,4.8,800.,4.8,0.,4.8,0.,4.8
1979-07-28 21:12:01.460 ,3,1,20.,4.8,752.,4.8,0.,4.8,0.,4.8
1979-07-28 21:12:06.260 ,3,1,12.,4.8,816.,4.8,0.,4.8,0.,4.8
1979-07-28 21:12:11.060 ,3,1,27.,4.8,928.,4.8,0.,4.8,0.,4.8
1979-07-28 21:12:15.860 ,3,1,19.,4.8,912.,4.8,0.,4.8,0.,4.8
1979-07-28 21:12:20.660 ,3,1,14.,4.8,832.,4.8,0.,4.8,0.,4.8
1979-07-28 21:12:25.460 ,0,1,15.,4.8,752.,4.8,0.,4.8,0.,4.8
1979-07-28 21:12:30.260 ,0,1,14.,4.8,768.,4.8,0.,4.8,0.,4.8
1979-07-28 21:12:35.060 ,0,1,16.,4.8,768.,4.8,0.,4.8,0.,4.8
1979-07-28 21:12:39.860 ,0,1,22.,4.8,752.,4.8,0.,4.8,0.,4.8
1979-07-28 21:12:44.660 ,0,1,18.,4.8,768.,4.8,0.,4.8,0.,4.8
1979-07-28 21:12:49.460 ,4,1,18.,4.8,800.,4.8,0.,4.8,0.,4.8
1979-07-28 21:12:54.260 ,4,1,7.,4.8,752.,4.8,0.,4.8,0.,4.8
1979-07-28 21:12:59.060 ,4,1,19.,4.8,816.,4.8,0.,4.8,0.,4.8
1979-07-28 21:13:03.860 ,4,1,17.,4.8,784.,4.8,0.,4.8,0.,4.8
1979-07-28 21:13:08.660 ,4,1,27.,4.8,816.,4.8,0.,4.8,0.,4.8
1979-07-28 21:13:13.460 ,7,1,13.,4.8,848.,4.8,0.,4.8,0.,4.8
1979-07-28 21:13:18.260 ,7,1,22.,4.8,816.,4.8,0.,4.8,0.,4.8
1979-07-28 21:13:23.060 ,7,1,28.,4.8,784.,4.8,0.,4.8,0.,4.8
1979-07-28 21:13:27.860 ,7,1,15.,4.8,848.,4.8,1.,4.8,0.,4.8
1979-07-28 21:13:32.660 ,7,1,23.,4.8,880.,4.8,0.,4.8,0.,4.8
1979-07-28 21:13:37.460 ,3,1,19.,4.8,880.,4.8,0.,4.8,0.,4.8
1979-07-28 21:13:42.260 ,3,1,33.,4.8,864.,4.8,0.,4.8,0.,4.8
1979-07-28 21:13:47.060 ,3,1,19.,4.8,880.,4.8,0.,4.8,0.,4.8
1979-07-28 21:13:51.860 ,3,1,32.,4.8,928.,4.8,0.,4.8,0.,4.8
1979-07-28 21:13:56.660 ,3,1,14.,4.8,832.,4.8,0.,4.8,0.,4.8
1979-07-28 21:14:01.460 ,0,1,11.,4.8,928.,4.8,0.,4.8,0.,4.8
1979-07-28 21:14:06.260 ,0,1,24.,4.8,800.,4.8,0.,4.8,0.,4.8
1979-07-28 21:14:11.060 ,0,1,24.,4.8,784.,4.8,0.,4.8,0.,4.8
1979-07-28 21:14:15.860 ,0,1,11.,4.8,848.,4.8,0.,4.8,0.,4.8
1979-07-28 21:14:20.660 ,0,1,19.,4.8,752.,4.8,0.,4.8,0.,4.8
1979-07-28 21:14:25.460 ,0,0,11.,4.8,768.,4.8,0.,4.8,0.,4.8
1979-07-28 21:14:30.260 ,0,0,32.,4.8,768.,4.8,0.,4.8,0.,4.8
1979-07-28 21:14:35.060 ,0,0,15.,4.8,784.,4.8,0.,4.8,0.,4.8
1979-07-28 21:14:39.860 ,0,0,17.,4.8,848.,4.8,0.,4.8,0.,4.8
1979-07-28 21:14:44.660 ,0,0,17.,4.8,880.,4.8,0.,4.8,0.,4.8
1979-07-28 21:14:49.460 ,0,0,20.,4.8,832.,4.8,0.,4.8,0.,4.8
1979-07-28 21:14:54.260 ,0,0,22.,4.8,848.,4.8,0.,4.8,0.,4.8
1979-07-28 21:14:59.060 ,0,0,19.,4.8,864.,4.8,0.,4.8,0.,4.8
1979-07-28 21:15:03.860 ,0,0,19.,4.8,848.,4.8,0.,4.8,0.,4.8
1979-07-28 21:15:08.660 ,0,0,20.,4.8,816.,4.8,0.,4.8,0.,4.8
1979-07-28 21:15:13.460 ,3,1,22.,4.8,864.,4.8,0.,4.8,0.,4.8
1979-07-28 21:15:18.260 ,3,1,19.,4.8,848.,4.8,0.,4.8,0.,4.8
1979-07-28 21:15:23.060 ,3,1,22.,4.8,880.,4.8,0.,4.8,0.,4.8
1979-07-28 21:15:27.860 ,3,1,22.,4.8,816.,4.8,0.,4.8,0.,4.8
1979-07-28 21:15:32.660 ,3,1,18.,4.8,816.,4.8,0.,4.8,0.,4.8
1979-07-28 21:15:37.460 ,0,1,15.,4.8,768.,4.8,0.,4.8,0.,4.8
1979-07-28 21:15:42.260 ,0,1,10.,4.8,832.,4.8,0.,4.8,0.,4.8
1979-07-28 21:15:47.060 ,0,1,18.,4.8,864.,4.8,0.,4.8,0.,4.8
1979-07-28 21:15:51.860 ,0,1,23.,4.8,880.,4.8,0.,4.8,0.,4.8
1979-07-28 21:15:56.660 ,0,1,24.,4.8,864.,4.8,0.,4.8,0.,4.8
1979-07-28 21:16:01.460 ,4,1,17.,4.8,800.,4.8,0.,4.8,1.,4.8
1979-07-28 21:16:06.260 ,4,1,17.,4.8,800.,4.8,0.,4.8,0.,4.8
1979-07-28 21:16:11.060 ,4,1,15.,4.8,848.,4.8,0.,4.8,0.,4.8
1979-07-28 21:16:15.860 ,4,1,15.,4.8,864.,4.8,0.,4.8,0.,4.8
1979-07-28 21:16:20.660 ,4,1,31.,4.8,880.,4.8,0.,4.8,0.,4.8
1979-07-28 21:16:25.460 ,7,1,20.,4.8,896.,4.8,0.,4.8,1.,4.8
1979-07-28 21:16:30.260 ,7,1,26.,4.8,880.,4.8,0.,4.8,0.,4.8
1979-07-28 21:16:35.060 ,7,1,12.,4.8,880.,4.8,0.,4.8,0.,4.8
1979-07-28 21:16:39.860 ,7,1,17.,4.8,800.,4.8,0.,4.8,0.,4.8
1979-07-28 21:16:44.660 ,7,1,14.,4.8,784.,4.8,0.,4.8,0.,4.8
1979-07-28 21:16:49.460 ,3,1,19.,4.8,832.,4.8,0.,4.8,0.,4.8
1979-07-28 21:16:54.260 ,3,1,22.,4.8,832.,4.8,0.,4.8,0.,4.8
1979-07-28 21:16:59.060 ,3,1,23.,4.8,896.,4.8,0.,4.8,0.,4.8
1979-07-28 21:17:03.860 ,3,1,26.,4.8,880.,4.8,0.,4.8,0.,4.8
1979-07-28 21:17:08.660 ,3,1,11.,4.8,800.,4.8,0.,4.8,0.,4.8
1979-07-28 21:17:13.460 ,0,1,10.,4.8,832.,4.8,0.,4.8,0.,4.8
1979-07-28 21:17:18.260 ,0,1,27.,4.8,736.,4.8,0.,4.8,0.,4.8
1979-07-28 21:17:23.060 ,0,1,18.,4.8,784.,4.8,0.,4.8,0.,4.8
1979-07-28 21:17:27.860 ,0,1,27.,4.8,752.,4.8,0.,4.8,0.,4.8
1979-07-28 21:17:32.660 ,0,1,29.,4.8,752.,4.8,0.,4.8,0.,4.8
1979-07-28 21:17:37.460 ,0,0,23.,4.8,784.,4.8,0.,4.8,0.,4.8
1979-07-28 21:17:42.260 ,0,0,24.,4.8,768.,4.8,0.,4.8,0.,4.8
1979-07-28 21:17:47.060 ,0,0,14.,4.8,752.,4.8,0.,4.8,0.,4.8
1979-07-28 21:17:51.860 ,0,0,10.,4.8,736.,4.8,0.,4.8,0.,4.8
1979-07-28 21:17:56.660 ,0,0,25.,4.8,752.,4.8,0.,4.8,0.,4.8
1979-07-28 21:18:01.460 ,0,0,19.,4.8,832.,4.8,0.,4.8,0.,4.8
1979-07-28 21:18:06.260 ,0,0,23.,4.8,800.,4.8,0.,4.8,0.,4.8
1979-07-28 21:18:11.060 ,0,0,23.,4.8,864.,4.8,0.,4.8,0.,4.8
1979-07-28 21:18:15.860 ,0,0,17.,4.8,832.,4.8,0.,4.8,0.,4.8
1979-07-28 21:18:20.660 ,0,0,16.,4.8,784.,4.8,0.,4.8,0.,4.8
1979-07-28 21:18:25.460 ,5,0,22.,4.8,880.,4.8,0.,4.8,0.,4.8
1979-07-28 21:18:30.260 ,5,0,20.,4.8,816.,4.8,0.,4.8,0.,4.8
1979-07-28 21:18:35.060 ,5,0,25.,4.8,800.,4.8,0.,4.8,0.,4.8
1979-07-28 21:18:39.860 ,5,0,21.,4.8,832.,4.8,0.,4.8,0.,4.8
1979-07-28 21:18:44.660 ,5,0,20.,4.8,816.,4.8,0.,4.8,0.,4.8
1979-07-28 21:18:49.460 ,5,0,21.,4.8,848.,4.8,0.,4.8,0.,4.8
1979-07-28 21:18:54.260 ,5,0,18.,4.8,880.,4.8,0.,4.8,0.,4.8
1979-07-28 21:18:59.060 ,5,0,25.,4.8,912.,4.8,0.,4.8,0.,4.8
1979-07-28 21:19:03.860 ,5,0,23.,4.8,928.,4.8,0.,4.8,0.,4.8
1979-07-28 21:19:08.660 ,5,0,20.,4.8,880.,4.8,0.,4.8,0.,4.8
1979-07-28 21:19:13.460 ,4,0,22.,4.8,784.,4.8,0.,4.8,0.,4.8
1979-07-28 21:19:18.260 ,4,0,22.,4.8,816.,4.8,0.,4.8,0.,4.8
1979-07-28 21:19:23.060 ,4,0,25.,4.8,800.,4.8,0.,4.8,0.,4.8
1979-07-28 21:19:27.860 ,4,0,19.,4.8,880.,4.8,0.,4.8,0.,4.8
1979-07-28 21:19:32.660 ,4,0,28.,4.8,848.,4.8,0.,4.8,0.,4.8
1979-07-28 21:19:37.460 ,4,0,23.,4.8,864.,4.8,0.,4.8,0.,4.8
1979-07-28 21:19:42.260 ,4,0,13.,4.8,848.,4.8,0.,4.8,0.,4.8
1979-07-28 21:19:47.060 ,4,0,28.,4.8,832.,4.8,0.,4.8,0.,4.8
1979-07-28 21:19:51.860 ,4,0,22.,4.8,800.,4.8,0.,4.8,0.,4.8
1979-07-28 21:19:56.660 ,4,0,28.,4.8,768.,4.8,0.,4.8,0.,4.8
1979-07-28 21:20:01.460 ,3,0,33.,4.8,816.,4.8,0.,4.8,0.,4.8
1979-07-28 21:20:06.260 ,3,0,17.,4.8,864.,4.8,0.,4.8,0.,4.8
1979-07-28 21:20:11.060 ,3,0,14.,4.8,832.,4.8,0.,4.8,0.,4.8
1979-07-28 21:20:15.860 ,3,0,14.,4.8,800.,4.8,0.,4.8,0.,4.8
1979-07-28 21:20:20.660 ,3,0,16.,4.8,800.,4.8,0.,4.8,0.,4.8
1979-07-28 21:20:25.460 ,3,0,14.,4.8,832.,4.8,0.,4.8,0.,4.8
1979-07-28 21:20:30.260 ,3,0,19.,4.8,800.,4.8,0.,4.8,0.,4.8
1979-07-28 21:20:35.060 ,3,0,18.,4.8,784.,4.8,0.,4.8,0.,4.8
1979-07-28 21:20:39.860 ,3,0,11.,4.8,880.,4.8,0.,4.8,0.,4.8
1979-07-28 21:20:44.660 ,3,0,17.,4.8,816.,4.8,0.,4.8,0.,4.8
1979-07-28 21:20:49.460 ,2,0,8.,4.8,800.,4.8,0.,4.8,0.,4.8
1979-07-28 21:20:54.260 ,2,0,26.,4.8,832.,4.8,0.,4.8,0.,4.8
1979-07-28 21:20:59.060 ,2,0,26.,4.8,800.,4.8,0.,4.8,0.,4.8
1979-07-28 21:21:03.860 ,2,0,12.,4.8,800.,4.8,0.,4.8,0.,4.8
1979-07-28 21:21:08.660 ,2,0,18.,4.8,816.,4.8,0.,4.8,0.,4.8
1979-07-28 21:21:13.460 ,2,0,23.,4.8,816.,4.8,0.,4.8,0.,4.8
1979-07-28 21:21:18.260 ,2,0,16.,4.8,896.,4.8,0.,4.8,0.,4.8
1979-07-28 21:21:23.060 ,2,0,17.,4.8,816.,4.8,0.,4.8,0.,4.8
1979-07-28 21:21:27.860 ,2,0,26.,4.8,800.,4.8,0.,4.8,0.,4.8
1979-07-28 21:21:32.660 ,2,0,22.,4.8,816.,4.8,0.,4.8,0.,4.8
1979-07-28 21:21:37.460 ,1,0,17.,4.8,832.,4.8,0.,4.8,0.,4.8
1979-07-28 21:21:42.260 ,1,0,14.,4.8,896.,4.8,0.,4.8,0.,4.8
1979-07-28 21:21:47.060 ,1,0,25.,4.8,816.,4.8,0.,4.8,0.,4.8
1979-07-28 21:21:51.860 ,1,0,28.,4.8,816.,4.8,0.,4.8,0.,4.8
1979-07-28 21:21:56.660 ,1,0,15.,4.8,832.,4.8,0.,4.8,0.,4.8
1979-07-28 21:22:01.460 ,1,0,24.,4.8,720.,4.8,0.,4.8,0.,4.8
1979-07-28 21:22:06.260 ,1,0,20.,4.8,784.,4.8,0.,4.8,0.,4.8
1979-07-28 21:22:11.060 ,1,0,26.,4.8,848.,4.8,0.,4.8,0.,4.8
1979-07-28 21:22:15.860 ,1,0,20.,4.8,784.,4.8,0.,4.8,0.,4.8
1979-07-28 21:22:20.660 ,1,0,24.,4.8,784.,4.8,0.,4.8,0.,4.8
1979-07-28 21:22:25.460 ,0,0,19.,4.8,784.,4.8,0.,4.8,0.,4.8
1979-07-28 21:22:30.260 ,0,0,14.,4.8,800.,4.8,0.,4.8,0.,4.8
1979-07-28 21:22:35.060 ,0,0,23.,4.8,816.,4.8,0.,4.8,0.,4.8
1979-07-28 21:22:39.860 ,0,0,19.,4.8,768.,4.8,0.,4.8,0.,4.8
1979-07-28 21:22:44.660 ,0,0,22.,4.8,800.,4.8,0.,4.8,0.,4.8
1979-07-28 21:22:49.460 ,0,0,31.,4.8,800.,4.8,0.,4.8,0.,4.8
1979-07-28 21:22:54.260 ,0,0,20.,4.8,800.,4.8,0.,4.8,0.,4.8
1979-07-28 21:22:59.060 ,0,0,25.,4.8,800.,4.8,1.,4.8,0.,4.8
1979-07-28 21:23:03.860 ,0,0,26.,4.8,848.,4.8,0.,4.8,0.,4.8
1979-07-28 21:23:08.660 ,0,0,24.,4.8,832.,4.8,0.,4.8,0.,4.8
1979-07-28 21:23:13.460 ,0,0,18.,4.8,848.,4.8,0.,4.8,0.,4.8
1979-07-28 21:23:18.260 ,0,0,28.,4.8,880.,4.8,0.,4.8,0.,4.8
1979-07-28 21:23:23.060 ,0,0,24.,4.8,896.,4.8,0.,4.8,0.,4.8
1979-07-28 21:23:27.860 ,0,0,29.,4.8,800.,4.8,0.,4.8,0.,4.8
1979-07-28 21:23:32.660 ,0,0,18.,4.8,816.,4.8,0.,4.8,0.,4.8
1979-07-28 21:23:37.460 ,0,0,27.,4.8,880.,4.8,0.,4.8,0.,4.8
1979-07-28 21:23:42.260 ,0,0,18.,4.8,848.,4.8,0.,4.8,0.,4.8
1979-07-28 21:23:47.060 ,0,0,24.,4.8,816.,4.8,0.,4.8,0.,4.8
1979-07-28 21:23:51.860 ,0,0,18.,4.8,816.,4.8,0.,4.8,0.,4.8
1979-07-28 21:23:56.660 ,0,0,25.,4.8,784.,4.8,0.,4.8,0.,4.8
1979-07-28 21:24:01.460 ,1,0,22.,4.8,768.,4.8,0.,4.8,0.,4.8
1979-07-28 21:24:06.260 ,1,0,21.,4.8,768.,4.8,0.,4.8,0.,4.8
1979-07-28 21:24:11.060 ,1,0,20.,4.8,736.,4.8,0.,4.8,0.,4.8
1979-07-28 21:24:15.860 ,1,0,22.,4.8,736.,4.8,0.,4.8,0.,4.8
1979-07-28 21:24:20.660 ,1,0,23.,4.8,704.,4.8,0.,4.8,0.,4.8
1979-07-28 21:24:25.460 ,1,0,18.,4.8,752.,4.8,0.,4.8,0.,4.8
1979-07-28 21:24:30.260 ,1,0,24.,4.8,800.,4.8,0.,4.8,1.,4.8
1979-07-28 21:24:35.060 ,1,0,23.,4.8,768.,4.8,0.,4.8,0.,4.8
1979-07-28 21:24:39.860 ,1,0,13.,4.8,752.,4.8,0.,4.8,0.,4.8
1979-07-28 21:24:44.660 ,1,0,11.,4.8,800.,4.8,0.,4.8,0.,4.8
1979-07-28 21:24:49.460 ,2,0,24.,4.8,768.,4.8,0.,4.8,0.,4.8
1979-07-28 21:24:54.260 ,2,0,11.,4.8,688.,4.8,0.,4.8,0.,4.8
1979-07-28 21:24:59.060 ,2,0,19.,4.8,784.,4.8,0.,4.8,0.,4.8
1979-07-28 21:25:03.860 ,2,0,17.,4.8,832.,4.8,0.,4.8,0.,4.8
1979-07-28 21:25:08.660 ,2,0,17.,4.8,768.,4.8,0.,4.8,0.,4.8
1979-07-28 21:25:13.460 ,2,0,21.,4.8,768.,4.8,0.,4.8,0.,4.8
1979-07-28 21:25:18.260 ,2,0,6.,4.8,768.,4.8,0.,4.8,0.,4.8
1979-07-28 21:25:23.060 ,2,0,21.,4.8,832.,4.8,0.,4.8,0.,4.8
1979-07-28 21:25:27.860 ,2,0,22.,4.8,800.,4.8,0.,4.8,0.,4.8
1979-07-28 21:25:32.660 ,2,0,14.,4.8,784.,4.8,0.,4.8,0.,4.8
1979-07-28 21:25:37.460 ,3,0,21.,4.8,848.,4.8,0.,4.8,0.,4.8
1979-07-28 21:25:42.260 ,3,0,21.,4.8,784.,4.8,0.,4.8,0.,4.8
1979-07-28 21:25:47.060 ,3,0,16.,4.8,832.,4.8,0.,4.8,0.,4.8
1979-07-28 21:25:51.860 ,3,0,11.,4.8,944.,4.8,0.,4.8,0.,4.8
1979-07-28 21:25:56.660 ,3,0,15.,4.8,848.,4.8,0.,4.8,0.,4.8
1979-07-28 21:26:01.460 ,3,0,20.,4.8,880.,4.8,0.,4.8,0.,4.8
1979-07-28 21:26:06.260 ,3,0,22.,4.8,784.,4.8,0.,4.8,0.,4.8
1979-07-28 21:26:11.060 ,3,0,20.,4.8,848.,4.8,0.,4.8,0.,4.8
1979-07-28 21:26:15.860 ,3,0,10.,4.8,880.,4.8,0.,4.8,0.,4.8
1979-07-28 21:26:20.660 ,3,0,12.,4.8,832.,4.8,0.,4.8,0.,4.8
1979-07-28 21:26:25.460 ,4,0,15.,4.8,832.,4.8,0.,4.8,0.,4.8
1979-07-28 21:26:30.260 ,4,0,17.,4.8,896.,4.8,0.,4.8,0.,4.8
1979-07-28 21:26:35.060 ,4,0,21.,4.8,880.,4.8,0.,4.8,0.,4.8
1979-07-28 21:26:39.860 ,4,0,15.,4.8,928.,4.8,0.,4.8,0.,4.8
1979-07-28 21:26:44.660 ,4,0,24.,4.8,960.,4.8,0.,4.8,0.,4.8
1979-07-28 21:26:49.460 ,4,0,28.,4.8,928.,4.8,0.,4.8,0.,4.8
1979-07-28 21:26:54.260 ,4,0,23.,4.8,864.,4.8,0.,4.8,0.,4.8
1979-07-28 21:26:59.060 ,4,0,26.,4.8,944.,4.8,0.,4.8,0.,4.8
1979-07-28 21:27:03.860 ,4,0,20.,4.8,848.,4.8,0.,4.8,0.,4.8
1979-07-28 21:27:08.660 ,4,0,25.,4.8,928.,4.8,0.,4.8,0.,4.8
1979-07-28 21:27:13.460 ,5,0,15.,4.8,928.,4.8,0.,4.8,0.,4.8
1979-07-28 21:27:18.260 ,5,0,24.,4.8,896.,4.8,0.,4.8,0.,4.8
1979-07-28 21:27:23.060 ,5,0,19.,4.8,928.,4.8,0.,4.8,0.,4.8
1979-07-28 21:27:27.860 ,5,0,22.,4.8,912.,4.8,0.,4.8,0.,4.8
1979-07-28 21:27:32.660 ,5,0,27.,4.8,912.,4.8,0.,4.8,0.,4.8
1979-07-28 21:27:37.460 ,5,0,22.,4.8,960.,4.8,0.,4.8,0.,4.8
1979-07-28 21:27:42.260 ,5,0,24.,4.8,928.,4.8,0.,4.8,0.,4.8
1979-07-28 21:27:47.060 ,5,0,23.,4.8,896.,4.8,0.,4.8,0.,4.8
1979-07-28 21:27:51.860 ,5,0,19.,4.8,960.,4.8,0.,4.8,0.,4.8
1979-07-28 21:27:56.660 ,5,0,30.,4.8,960.,4.8,0.,4.8,0.,4.8
1979-07-28 21:28:01.460 ,6,0,22.,4.8,912.,4.8,0.,4.8,0.,4.8
1979-07-28 21:28:06.260 ,6,0,17.,4.8,896.,4.8,0.,4.8,0.,4.8
1979-07-28 21:28:11.060 ,6,0,22.,4.8,912.,4.8,0.,4.8,0.,4.8
1979-07-28 21:28:15.860 ,6,0,16.,4.8,896.,4.8,0.,4.8,0.,4.8
1979-07-28 21:28:20.660 ,6,0,24.,4.8,896.,4.8,0.,4.8,0.,4.8
1979-07-28 21:28:25.460 ,6,0,26.,4.8,864.,4.8,0.,4.8,0.,4.8
1979-07-28 21:28:30.260 ,6,0,20.,4.8,912.,4.8,0.,4.8,0.,4.8
1979-07-28 21:28:35.060 ,6,0,18.,4.8,928.,4.8,0.,4.8,0.,4.8
1979-07-28 21:28:39.860 ,6,0,21.,4.8,896.,4.8,0.,4.8,0.,4.8
1979-07-28 21:28:44.660 ,6,0,27.,4.8,832.,4.8,0.,4.8,0.,4.8
1979-07-28 21:28:49.460 ,7,0,24.,4.8,896.,4.8,0.,4.8,0.,4.8
1979-07-28 21:28:54.260 ,7,0,15.,4.8,896.,4.8,0.,4.8,0.,4.8
1979-07-28 21:28:59.060 ,7,0,15.,4.8,864.,4.8,0.,4.8,0.,4.8
1979-07-28 21:29:03.860 ,7,0,23.,4.8,864.,4.8,0.,4.8,0.,4.8
1979-07-28 21:29:08.660 ,7,0,33.,4.8,832.,4.8,0.,4.8,0.,4.8
1979-07-28 21:29:13.460 ,7,0,26.,4.8,752.,4.8,0.,4.8,0.,4.8
1979-07-28 21:29:18.260 ,7,0,18.,4.8,800.,4.8,0.,4.8,0.,4.8
1979-07-28 21:29:23.060 ,7,0,26.,4.8,784.,4.8,0.,4.8,0.,4.8
1979-07-28 21:29:27.860 ,7,0,19.,4.8,800.,4.8,0.,4.8,0.,4.8
1979-07-28 21:29:32.660 ,7,0,20.,4.8,816.,4.8,0.,4.8,0.,4.8
1979-07-28 21:29:37.460 ,7,0,21.,4.8,816.,4.8,0.,4.8,0.,4.8
1979-07-28 21:29:42.260 ,7,0,16.,4.8,848.,4.8,0.,4.8,0.,4.8
1979-07-28 21:29:47.060 ,7,0,16.,4.8,864.,4.8,0.,4.8,0.,4.8
1979-07-28 21:29:51.860 ,7,0,20.,4.8,848.,4.8,0.,4.8,0.,4.8
1979-07-28 21:29:56.660 ,7,0,21.,4.8,880.,4.8,0.,4.8,0.,4.8
1979-07-28 21:30:01.460 ,7,0,28.,4.8,800.,4.8,0.,4.8,0.,4.8
1979-07-28 21:30:06.260 ,7,0,16.,4.8,816.,4.8,0.,4.8,0.,4.8
1979-07-28 21:30:11.060 ,7,0,13.,4.8,896.,4.8,0.,4.8,0.,4.8
1979-07-28 21:30:15.860 ,7,0,25.,4.8,816.,4.8,0.,4.8,0.,4.8
1979-07-28 21:30:20.660 ,7,0,10.,4.8,848.,4.8,0.,4.8,0.,4.8
1979-07-28 21:30:25.460 ,6,0,29.,4.8,944.,4.8,0.,4.8,0.,4.8
1979-07-28 21:30:30.260 ,6,0,13.,4.8,928.,4.8,0.,4.8,0.,4.8
1979-07-28 21:30:35.060 ,6,0,20.,4.8,832.,4.8,0.,4.8,0.,4.8
1979-07-28 21:30:39.860 ,6,0,18.,4.8,912.,4.8,0.,4.8,0.,4.8
1979-07-28 21:30:44.660 ,6,0,26.,4.8,864.,4.8,0.,4.8,0.,4.8
1979-07-28 21:30:49.460 ,6,0,24.,4.8,896.,4.8,0.,4.8,0.,4.8
1979-07-28 21:30:54.260 ,6,0,26.,4.8,1008.,4.8,0.,4.8,0.,4.8
1979-07-28 21:30:59.060 ,6,0,29.,4.8,928.,4.8,0.,4.8,0.,4.8
1979-07-28 21:31:03.860 ,6,0,23.,4.8,912.,4.8,0.,4.8,0.,4.8
1979-07-28 21:31:08.660 ,6,0,21.,4.8,800.,4.8,0.,4.8,0.,4.8
1979-07-28 21:31:13.460 ,5,0,21.,4.8,832.,4.8,0.,4.8,0.,4.8
1979-07-28 21:31:18.260 ,5,0,19.,4.8,896.,4.8,0.,4.8,0.,4.8
1979-07-28 21:31:23.060 ,5,0,17.,4.8,864.,4.8,0.,4.8,0.,4.8
1979-07-28 21:31:27.860 ,5,0,17.,4.8,816.,4.8,0.,4.8,0.,4.8
1979-07-28 21:31:32.660 ,5,0,23.,4.8,896.,4.8,0.,4.8,0.,4.8
1979-07-28 21:31:37.460 ,5,0,25.,4.8,832.,4.8,0.,4.8,0.,4.8
1979-07-28 21:31:42.260 ,5,0,30.,4.8,832.,4.8,0.,4.8,0.,4.8